Regional Weather Roundup
Issued by NWS

Home | Current Version | Previous Version | Text Only | Print | Product List | Glossary Off
Versions: 1 2 3 4 5 6 7 8 9 10 11 12 13 14 15 16 17 18 19 20 21 22 23 24 25 26 27 28 29 30 31 32 33 34 35 36 37 38 39 40 41 42 43 44 45 46 47 48 49 50

000
ASUS43 KMKX 240400
RWRWI

WISCONSIN REGIONAL WEATHER ROUNDUP
NATIONAL WEATHER SERVICE MILWAUKEE/SULLIVAN WI
1100 PM CDT MON MAY 23 2016

NOTE: "FAIR" INDICATES FEW OR NO CLOUDS BELOW 12,000 FEET WITH NO
SIGNIFICANT WEATHER AND/OR OBSTRUCTIONS TO VISIBILITY.

WIZ001-002-006>008-014>016-023>028-240500-
NORTHWEST WISCONSIN

CITY           SKY/WX    TMP DP  RH WIND       PRES   REMARKS
SUPERIOR ARPT  DRIZZLE   63  62  97 S7        29.77F
ASHLAND        CLOUDY    63  63 100 CALM      29.78S
HAYWARD        CLOUDY    65  61  87 S9        29.82R
SIREN          LGT RAIN  64  61  90 SW13G22   29.81R
CUMBERLAND     CLOUDY    64  55  72 SW12      29.84R
RICE LAKE      CLOUDY    69  56  62 S12       29.85R
CHETEK         CLOUDY    64  64  99 CALM      29.85R
LADYSMITH      MOCLDY    65  61  87 SE3       29.86R
EAU CLAIRE     NOT AVBL
MENOMONIE      CLOUDY    66  61  83 CALM      29.84R
NEW RICHMOND   CLOUDY    66  57  72 CALM      29.84R
OSCEOLA        CLOUDY    64  64 100 W3        29.86R
$$

WIZ003>005-009-010-017-018-240500-
NORTH CENTRAL WISCONSIN

CITY           SKY/WX    TMP DP  RH WIND       PRES   REMARKS
MANITOWISH WTR CLOUDY    63  63  99 CALM      29.85R
ARBOR VITAE    MOCLDY    69  60  71 N5        29.85R
WOODRUFF       MOCLDY    69  60  71 N5        29.85R
RHINELANDER    PTCLDY    70  45  40 S5        29.86R
EAGLE RIVER      N/A     70  42  35 CALM      29.84S
LAND O LAKES   CLOUDY    72  48  42 N9        29.86R
PHILLIPS       CLOUDY    65  61  87 CALM      29.84R
TOMAHAWK       MOCLDY    63  48  58 CALM      29.85R
MEDFORD        CLOUDY    69  49  49 SW5       29.86R
MERRILL        PTCLDY   N/A N/A N/A CALM      29.86R
$$

WIZ029-030-035-036-043>047-240500-
CENTRAL WISCONSIN

CITY           SKY/WX    TMP DP  RH WIND       PRES   REMARKS
WAUSAU         PTCLDY    69  47  45 CALM      29.84R
MOSINEE        PTCLDY    64  45  48 S7        29.86R
MARSHFIELD     CLOUDY    67  50  54 W6        29.86R
STEVENS POINT  PTCLDY    68  45  42 S5        29.86R
WAUPACA        CLEAR     65  51  60 CALM      29.86S
WAUTOMA        PTCLDY    66  50  56 SE5       29.87R
WISC RAPIDS    CLOUDY    70  44  39 SW6       29.87R
CAMP DOUGLAS   PTCLDY    61  54  76 S7        29.85R
$$

WIZ011>013-019>022-031-037>040-048>050-240500-
NORTHEAST WISCONSIN

CITY           SKY/WX    TMP DP  RH WIND       PRES   REMARKS
ANTIGO         CLEAR     62  47  56 CALM      29.87S
SHAWANO        PTCLDY    68  48  49 S6        29.86S
OCONTO         CLOUDY    64  47  53 S5        29.86S
STURGEON BAY   NOT AVBL
GREEN BAY      CLOUDY    66  42  41 S6        29.88R
MANITOWOC      NOT AVBL
APPLETON       PTCLDY    66  45  45 S8        29.86S
CLINTONVILLE   PTCLDY    63  48  59 SE6       29.86S
OSHKOSH        MOCLDY    64  47  53 S9        29.87S
$$

WIZ032>034-041-042-053>061-240500-
SOUTHWEST WISCONSIN

CITY           SKY/WX    TMP DP  RH WIND       PRES   REMARKS
LA CROSSE      PTCLDY    69  58  67 S5        29.83R
SPARTA         MOCLDY    65  56  74 E5        29.85R
VIROQUA        PTCLDY    69  56  63 S5        29.87R
BOSCOBEL       NOT AVBL
PRAIRIE DU CHI PTCLDY    72  46  39 CALM      29.86R
PLATTEVILLE    CLOUDY    69  46  43 S6        29.89R
$$

WIZ056-057-062-063-064-067-068-240500-
SOUTH CENTRAL WISCONSIN

CITY           SKY/WX    TMP DP  RH WIND       PRES   REMARKS
REEDSBURG      CLEAR     70  47  43 S7        29.86S
BARABOO/DELLS  CLEAR     67  44  42 SW5       29.87S
LONE ROCK      NOT AVBL
MINERAL POINT  CLEAR     68  43  40 S6        29.89S
MADISON        PTCLDY    71  47  42 S7        29.88R
MIDDLETON      CLEAR     68  45  44 CALM      29.89R
WATERTOWN      CLEAR     65  46  50 SE6       29.89S
MONROE         PTCLDY    68  45  42 S7        29.90R
JANESVILLE     CLEAR     66  45  45 CALM      29.90
$$

WIZ051-052-058>065-066-070>072-240500-
SOUTHEAST WISCONSIN

CITY           SKY/WX    TMP DP  RH WIND       PRES   REMARKS
MILWAUKEE      CLOUDY    64  37  36 S6        29.92R
WAUKESHA       CLOUDY    63  36  36 S6        29.93R
MILWAUKEE/TIMM PTCLDY    66  30  26 S8        29.92R
RACINE         CLOUDY    63  39  41 S9        29.94R
BURLINGTON     CLOUDY    60  42  51 CALM      29.92R
KENOSHA        CLOUDY    62  40  44 S7        29.93R
FOND DU LAC    CLOUDY    66  44  45 S9        29.89R
SHEBOYGAN      CLOUDY    58  39  49 S5        29.90S
WEST BEND      CLOUDY    63  34  34 CALM      29.91S
JUNEAU         CLOUDY    65  46  51 SE9       29.90S
$$

LSZ147-162-240500-
LAKE SUPERIOR

STATION/POSITION TIME  TEMP    WIND        PRES    WAVE
                       AIR SEA DIR/SP/G            HT/PER
                 (UTC) (F)     (DEG/KT/KT) (MB)    (FT/S)
W MID LAKE BUOY  0250   50 38  180/ 12/ 12 1009.5R   1/ 4
DEVILS ISLAND    0300   64     200/  8/ 10 1008.2S
PORT WING        0200          130/  2/  9 1007.8R
SAXON HARBOR     0340   65     170/  6/ 12 1008.5F
$$

LMZ867-665-643>646-240500-
LAKE MICHIGAN

STATION/POSITION TIME  TEMP    WIND        PRES    WAVE
                       AIR SEA DIR/SP/G            HT/PER
                 (UTC) (F)     (DEG/KT/KT) (MB)    (FT/S)
CHAMBERS ISLAND  0300   63     190/  4/ 10 1011.9R
N MID LAKE BUOY  0250   49 44  190/  8/ 10 1012.2R   2/ 4
NORTHPORT PIER   0300   63     160/  6/ 12 1011.9R
SISTER BAY       0319   65     180/ 19/ 22   N/A
ALGOMA LAKESHORE 0316          210/ 12/ 13   N/A
KEWAUNEE LAKESHO 0300                      1011.8R
SHEBOYGAN LAKESH 0300   59     180/ 17/ 18 1012.9R
PORT WASHINGTON  0300   58     170/  4/  6 1013.5R
S MID LAKE BUOY  0250   55 50  120/ 10/ 12 1013.2R   0
KENOSHA   LAKESH 0300   61     180/ 13/ 14 1012.9S
$$

TC  - TEMPERATURE IN CELSIUS
VSB - VISIBILITY IN STATUTE MILES
WCI - WIND CHILL INDEX
HX  - HEAT INDEX




USA.gov is the U.S. government's official web portal to all federal, state and local government web resources and services.